Time,TemperatureF,DewpointF,PressureIn,WindDirection,WindDirectionDegrees,WindSpeedMPH,WindSpeedGustMPH,Humidity,HourlyPrecipIn,Conditions,Clouds,dailyrainin,SoftwareType,DateUTC
2013-09-04 00:44:00,60.0,-99.9,29.94,SSW,209,-999.0,-999.0,-999,0.00,,,-99.99,,2013-09-04 04:44:00,
2013-09-04 00:53:00,59.0,-99.9,29.93,SSW,209,-999.0,-999.0,-999,-99.99,,,-99.99,,2013-09-04 04:53:00,
2013-09-04 01:43:00,59.0,-99.9,29.93,SSW,209,-999.0,-999.0,-999,-99.99,,,-99.99,,2013-09-04 05:43:00,
2013-09-04 02:42:00,58.0,-99.9,29.95,SSW,209,-999.0,-999.0,-999,0.00,,,-99.99,,2013-09-04 06:42:00,
2013-09-04 02:52:00,58.0,-99.9,29.95,SSW,209,-999.0,-999.0,-999,0.00,,,-99.99,,2013-09-04 06:52:00,
2013-09-04 04:43:00,57.0,-99.9,29.97,SSW,209,-999.0,-999.0,-999,0.00,,,-99.99,,2013-09-04 08:43:00,
2013-09-04 04:52:00,57.0,-99.9,29.97,SSW,209,-999.0,-999.0,-999,0.00,,,-99.99,,2013-09-04 08:52:00,
2013-09-04 06:42:00,56.0,-99.9,30.00,SSW,209,-999.0,-999.0,-999,0.00,,,-99.99,,2013-09-04 10:42:00,
2013-09-04 06:52:00,56.0,-99.9,30.00,SSW,209,-999.0,-999.0,-999,0.00,,,-99.99,,2013-09-04 10:52:00,
2013-09-04 07:42:00,55.0,-99.9,30.02,SSW,209,-999.0,-999.0,-999,0.00,,,-99.99,,2013-09-04 11:42:00,
2013-09-04 07:52:00,55.0,-99.9,30.02,SSW,209,-999.0,-999.0,-999,0.00,,,-99.99,,2013-09-04 11:52:00,
2013-09-04 08:42:00,58.0,-99.9,30.03,SSW,209,-999.0,-999.0,-999,0.00,,,-99.99,,2013-09-04 12:42:00,
2013-09-04 08:52:00,58.0,-99.9,30.03,SSW,209,-999.0,-999.0,-999,0.00,,,-99.99,,2013-09-04 12:52:00,
2013-09-04 09:42:00,66.0,-99.9,30.04,SE,125,-999.0,5.0,-999,0.00,,,-99.99,,2013-09-04 13:42:00,
2013-09-04 09:52:00,66.0,-99.9,30.04,SE,125,-999.0,5.0,-999,0.00,,,-99.99,,2013-09-04 13:52:00,
2013-09-04 10:42:00,67.0,-99.9,30.04,West,272,-999.0,6.0,-999,0.00,,,-99.99,,2013-09-04 14:42:00,
2013-09-04 10:52:00,67.0,-99.9,30.04,West,272,-999.0,6.0,-999,0.00,,,-99.99,,2013-09-04 14:52:00,
2013-09-04 10:53:00,68.0,-99.9,30.03,South,189,3.0,7.0,-999,0.00,,,-99.99,,2013-09-04 14:53:00,
2013-09-04 11:44:00,68.0,-99.9,30.03,South,189,3.0,7.0,-999,0.00,,,-99.99,,2013-09-04 15:44:00,
2013-09-04 14:42:00,76.0,-99.9,30.01,WNW,301,3.0,11.0,-999,0.00,,,-99.99,,2013-09-04 18:42:00,
2013-09-04 14:52:00,76.0,-99.9,30.01,WNW,301,3.0,11.0,-999,0.00,,,-99.99,,2013-09-04 18:52:00,
2013-09-04 14:53:00,78.0,-99.9,30.00,SSW,192,4.0,9.0,-999,0.00,,,-99.99,,2013-09-04 18:53:00,
2013-09-04 15:42:00,78.0,-99.9,30.00,SSW,192,4.0,9.0,-999,0.00,,,-99.99,,2013-09-04 19:42:00,
2013-09-04 15:53:00,77.0,-99.9,29.99,SW,220,3.0,11.0,-999,0.00,,,-99.99,,2013-09-04 19:53:00,
2013-09-04 16:43:00,77.0,-99.9,29.99,SW,220,3.0,11.0,-999,0.00,,,-99.99,,2013-09-04 20:43:00,
2013-09-04 16:53:00,75.0,-99.9,29.99,WSW,240,3.0,5.0,-999,0.00,,,-99.99,,2013-09-04 20:53:00,
2013-09-04 17:44:00,75.0,-99.9,29.99,WSW,240,3.0,5.0,-999,0.00,,,-99.99,,2013-09-04 21:44:00,
2013-09-04 19:52:00,68.0,-99.9,29.98,SSW,203,-999.0,-999.0,-999,0.00,,,-99.99,,2013-09-04 23:52:00,
2013-09-04 20:43:00,66.0,-99.9,29.99,SSW,203,-999.0,-999.0,-999,0.00,,,-99.99,,2013-09-05 00:43:00,
2013-09-04 20:52:00,66.0,-99.9,29.99,SSW,203,-999.0,-999.0,-999,0.00,,,-99.99,,2013-09-05 00:52:00,
2013-09-04 21:42:00,63.0,-99.9,30.01,SSW,203,-999.0,-999.0,-999,0.00,,,-99.99,,2013-09-05 01:42:00,
2013-09-04 21:52:00,63.0,-99.9,30.01,SSW,203,-999.0,-999.0,-999,0.00,,,-99.99,,2013-09-05 01:52:00,
2013-09-04 22:52:00,62.0,-99.9,30.01,SSW,203,-999.0,-999.0,-999,0.00,,,-99.99,,2013-09-05 02:52:00,
2013-09-04 22:53:00,60.0,-99.9,30.02,SSW,203,-999.0,-999.0,-999,0.00,,,-99.99,,2013-09-05 02:53:00,
2013-09-04 23:45:00,60.0,-99.9,30.02,SSW,203,-999.0,-999.0,-999,0.00,,,-99.99,,2013-09-05 03:45:00,
2013-09-04 23:53:00,60.0,-99.9,30.01,SSW,203,-999.0,-999.0,-999,0.00,,,-99.99,,2013-09-05 03:53:00,